Date,TemperatureHighF,TemperatureAvgF,TemperatureLowF,DewpointHighF,DewpointAvgF,DewpointLowF,HumidityHigh,HumidityAvg,HumidityLow,PressureMaxIn,PressureMinIn,WindSpeedMaxMPH,WindSpeedAvgMPH,GustSpeedMaxMPH,PrecipitationSumIn
2013-1-1,27,14,3,23,14,1,100,97,79,30.24,30.13,13,6,0,0.00
2013-1-2,34,24,9,30,20,5,100,84,69,30.28,30.08,22,15,27,0.00
2013-1-3,28,20,9,21,16,7,100,86,68,30.39,30.26,16,9,12,0.00
2013-1-4,36,20,9,25,14,3,100,76,55,30.26,30.04,13,7,0,0.00
2013-1-5,39,26,9,30,20,7,100,78,64,30.31,30.00,25,14,30,0.00
2013-1-6,41,30,12,30,23,10,92,76,60,30.31,29.99,27,14,35,0.00
2013-1-7,43,32,21,30,26,21,100,79,52,29.99,29.87,24,9,30,0.00
2013-1-8,48,32,18,36,27,18,100,85,56,30.23,29.79,16,7,20,0.00
2013-1-9,52,35,25,37,30,23,100,83,50,30.41,30.22,15,8,0,0.00
2013-1-10,37,35,28,37,35,28,100,98,80,30.24,29.58,17,9,23,0.00
2013-1-11,57,38,21,39,31,16,100,81,31,29.87,29.29,35,18,45,0.00
2013-1-12,25,17,10,16,10,7,92,73,57,30.13,29.87,23,16,29,0.00
2013-1-13,25,13,7,10,7,3,92,78,53,30.26,30.11,13,8,17,0.00
2013-1-14,28,17,3,16,10,3,100,78,50,30.33,30.17,14,6,18,0.00
2013-1-15,32,21,10,21,14,7,100,78,34,30.21,30.07,13,6,18,0.00
2013-1-16,52,37,21,28,26,18,86,67,37,30.32,30.04,27,14,31,0.00
2013-1-17,54,37,27,27,24,21,92,63,32,30.49,30.27,14,8,0,0.00
2013-1-18,61,40,21,32,24,21,100,59,21,30.27,30.01,17,8,21,0.00
2013-1-19,57,43,30,25,21,16,74,42,24,30.24,30.00,25,12,32,0.00
2013-1-20,45,31,23,30,26,21,100,82,52,30.35,30.15,24,11,31,0.00
2013-1-21,46,28,18,28,24,18,100,86,45,30.34,30.11,20,9,25,0.00
2013-1-22,50,25,10,27,19,10,100,81,39,30.17,30.08,10,5,0,0.00
2013-1-23,54,34,25,27,23,19,92,67,32,30.32,30.10,16,10,16,0.00
2013-1-24,32,22,10,25,20,10,100,92,68,30.32,30.02,17,10,24,0.00
2013-1-25,54,37,23,30,26,21,100,68,37,30.25,30.07,17,8,16,0.00
2013-1-26,57,39,25,39,30,25,100,73,37,30.14,29.81,23,12,29,0.00
2013-1-27,57,40,27,46,37,27,100,91,62,29.82,29.64,16,9,23,0.00
2013-1-28,70,42,25,43,35,25,100,83,28,29.80,29.50,28,11,33,0.00
2013-1-29,36,32,27,36,30,25,100,95,74,29.79,29.62,27,16,32,0.00
2013-1-30,39,27,16,25,19,12,100,75,38,29.94,29.79,25,15,30,0.00
2013-1-31,37,28,16,27,21,16,100,75,54,30.28,29.91,23,11,29,0.00